Location: Hylvaty SDH
(49.9612°N, 16.4057°E)
Time: 09:28:52
(UTC+01:00)

Vanguard 1 - Visible Passes

Search period start: 23 January 2020 00:00
Search period end: 02 February 2020 00:00
Orbit: 651 x 3832 km, 34.2° (Epoch: 22 January)

Date Brightness Start Highest point End Pass type
(mag) Time Alt. Az. Time Alt. Az. Time Alt. Az.
23 Jan 11.7 17:56:59 10° SSW 17:59:21 14° SSE 18:02:02 10° SE visible
23 Jan 12.0 20:14:33 10° SW 20:16:18 15° SSW 20:16:18 15° SSW visible
24 Jan 11.7 18:17:12 10° SSW 18:19:55 15° S 18:23:05 10° SE visible
24 Jan 12.3 20:35:35 10° SW 20:36:10 12° SW 20:36:10 12° SW visible
25 Jan 11.7 18:37:42 10° SSW 18:40:31 15° S 18:43:21 11° SE visible
26 Jan 11.8 18:58:27 10° SW 19:01:08 15° S 19:03:16 12° SSE visible
27 Jan 11.9 19:19:28 10° SSW 19:21:48 13° S 19:23:13 12° S visible
28 Jan 11.8 17:21:30 10° SSW 17:23:20 12° S 17:25:14 10° SSE visible
28 Jan 12.1 19:41:12 10° SSW 19:42:28 11° S 19:43:11 11° S visible
29 Jan 11.8 17:42:08 10° SSW 17:43:56 12° S 17:45:49 10° SSE visible
30 Jan 11.9 18:03:10 10° SSW 18:04:32 11° S 18:05:58 10° SSE visible
